Lewisburg, WV

11:13 PM EDT on October 22, 2017 (GMT -0400)
Greenbrier Valley

Weather History for KLWB - August, 2014

Change the Weather History Date:

Monday, August 11, 2014

  Actual Average Record
Temperature  
Mean Temperature 67 °F 70 °F  
Max Temperature 68 °F 81 °F 91 °F (1988)
Min Temperature 65 °F 58 °F 48 °F (2008)
Degree Days  
Heating Degree Days 0 1  
Month to date heating degree days 0 4  
Since 1 June heating degree days 30 65  
Since 1 July heating degree days 17 15  
Cooling Degree Days 2 5  
Month to date cooling degree days 35 57  
Year to date cooling degree days 408 363  
Since 1 June cooling degree days 375 337  
Growing Degree Days 16 (Base 50)    
Moisture  
Dew Point 62 °F    
Average Humidity 84    
Maximum Humidity 90    
Minimum Humidity 78    
Precipitation  
Precipitation 0.47 in - 0.73 in (1990)
Month to date precipitation 0.68  
Year to date precipitation 16.62  
Snow  
Snow 0.00 in - - ()
Month to date snowfall 0.0  
Since 1 June snowfall 0.0  
Since 1 July snowfall 0.0  
Snow Depth 0.00 in    
Sea Level Pressure  
Sea Level Pressure 30.11 in    
Wind  
Wind Speed 2 mph (SE)    
Max Wind Speed 5 mph    
Max Gust Speed -    
Visibility 9 miles    
Events Rain    
T = Trace of Precipitation, MM = Missing Value Source: NWS Daily Summary

Daily Weather History Graph

Daily Weather History Graph

Search for Another Location

Airport or City:

Trip Planner

Search our weather history database for the weather conditions in past years. The results will help you decide how hot, cold, wet, or windy it might be!

Date:

Astronomy

Aug. 11, 2014 Rise Set
Actual Time 6:33 AM EDT 8:19 PM EDT
Civil Twilight 6:05 AM EDT 8:47 PM EDT
Nautical Twilight 5:30 AM EDT 9:21 PM EDT
Astronomical Twilight 4:54 AM EDT 9:58 PM EDT
Moon 8:49 PM EDT (8/11) 7:34 AM EDT (8/11)
Length of Visible Light 14h 42m
Length of Day
13h 45m
Full, 99% of the Moon is Illuminated
Aug 11
Full
Aug 17
Last Quarter
Aug 25
New
Sep 2
First Quarter
Sep 8
Full

Hourly Weather History & Observations

Time (EDT) Temp. Dew Point Humidity Pressure Visibility Wind Dir Wind Speed Gust Speed Precip Events Conditions
12:15 AM 67.1 °F 60.6 °F 80% 30.17 in 10.0 mi Calm Calm - N/A   Overcast
12:35 AM 67.3 °F 60.8 °F 80% 30.17 in 10.0 mi Calm Calm - N/A   Overcast
12:55 AM 67.3 °F 60.8 °F 80% 30.17 in 10.0 mi Calm Calm - N/A   Overcast
1:15 AM 67.3 °F 60.8 °F 80% 30.16 in 10.0 mi Calm Calm - N/A   Overcast
1:35 AM 67.6 °F 60.8 °F 79% 30.15 in 10.0 mi Calm Calm - N/A   Overcast
1:55 AM 67.6 °F 61.0 °F 79% 30.15 in 10.0 mi SSE 3.5 mph - N/A   Overcast
2:15 AM 67.6 °F 61.2 °F 80% 30.15 in 10.0 mi Calm Calm - N/A   Overcast
2:35 AM 67.3 °F 61.2 °F 81% 30.14 in 10.0 mi Calm Calm - N/A   Overcast
2:55 AM 67.6 °F 61.7 °F 81% 30.14 in 10.0 mi Calm Calm - N/A   Overcast
3:15 AM 67.3 °F 61.7 °F 82% 30.14 in 10.0 mi Calm Calm - N/A   Overcast
3:35 AM 67.1 °F 61.7 °F 83% 30.13 in 10.0 mi SSE 3.5 mph - N/A   Overcast
4:15 AM 67.3 °F 61.2 °F 81% 30.12 in 10.0 mi SE 3.5 mph - N/A   Overcast
4:35 AM 67.3 °F 61.2 °F 81% 30.12 in 10.0 mi Calm Calm - N/A   Overcast
4:55 AM 67.3 °F 61.0 °F 80% 30.12 in 10.0 mi SE 3.5 mph - N/A   Overcast
5:15 AM 67.3 °F 61.2 °F 81% 30.12 in 10.0 mi Calm Calm - N/A   Overcast
5:35 AM 67.3 °F 61.2 °F 81% 30.12 in 10.0 mi Calm Calm - N/A   Overcast
5:55 AM 67.1 °F 61.2 °F 81% 30.12 in 10.0 mi Calm Calm - N/A   Overcast
6:15 AM 67.1 °F 61.3 °F 82% 30.12 in 10.0 mi Calm Calm - N/A   Overcast
6:35 AM 67.1 °F 61.7 °F 83% 30.12 in 10.0 mi Calm Calm - N/A   Overcast
6:55 AM 67.1 °F 61.7 °F 83% 30.12 in 10.0 mi East 3.5 mph - N/A   Overcast
7:15 AM 67.1 °F 61.7 °F 83% 30.12 in 10.0 mi Calm Calm - N/A   Overcast
7:35 AM 67.1 °F 61.7 °F 83% 30.12 in 10.0 mi Calm Calm - N/A   Overcast
7:55 AM 67.1 °F 61.7 °F 83% 30.12 in 10.0 mi Calm Calm - N/A   Overcast
8:15 AM 67.1 °F 61.2 °F 81% 30.13 in 10.0 mi Calm Calm - N/A   Overcast
8:35 AM 66.6 °F 61.0 °F 82% 30.13 in 10.0 mi SE 3.5 mph - N/A Rain Light Rain
8:55 AM 66.2 °F 61.3 °F 84% 30.13 in 7.0 mi SE 3.5 mph - N/A Rain Rain
9:15 AM 65.8 °F 61.7 °F 86% 30.13 in 7.0 mi Calm Calm - N/A   Light Drizzle
9:35 AM 66.2 °F 61.2 °F 84% 30.13 in 10.0 mi Calm Calm - N/A   Overcast
9:55 AM 66.2 °F 61.2 °F 84% 30.13 in 7.0 mi Calm Calm - N/A Rain Rain
10:35 AM 65.3 °F 61.7 °F 88% 30.14 in 3.0 mi Calm Calm - 0.09 in Rain Rain
10:55 AM 65.3 °F 62.1 °F 89% 30.13 in 2.5 mi Calm Calm - 0.18 in Rain Rain
11:15 AM 65.3 °F 62.2 °F 90% 30.13 in 2.5 mi Calm Calm - 0.03 in Rain Rain
11:35 AM 65.3 °F 62.6 °F 91% 30.13 in 5.0 mi Calm Calm - 0.08 in Rain Rain
11:55 AM 65.5 °F 62.4 °F 90% 30.13 in 3.0 mi Calm Calm - 0.10 in Rain Rain
12:15 PM 65.7 °F 62.1 °F 88% 30.12 in 4.0 mi Calm Calm - N/A Rain Light Rain
12:35 PM 66.2 °F 62.2 °F 87% 30.12 in 5.0 mi Calm Calm - 0.01 in Rain Rain
12:55 PM 66.2 °F 61.7 °F 85% 30.12 in 4.0 mi Calm Calm - 0.05 in Rain Heavy Rain
1:15 PM 65.1 °F 61.7 °F 89% 30.12 in 3.0 mi Calm Calm - 0.06 in Rain Rain
1:35 PM 65.1 °F 61.7 °F 89% 30.12 in 3.0 mi Calm Calm - 0.12 in Rain Rain
1:55 PM 65.1 °F 61.9 °F 89% 30.12 in 5.0 mi East 3.5 mph - 0.13 in   Light Drizzle
2:15 PM 64.8 °F 61.5 °F 89% 30.11 in 7.0 mi Calm Calm - 0.01 in   Overcast
2:35 PM 65.7 °F 61.5 °F 86% 30.11 in 10.0 mi Calm Calm - 0.01 in   Overcast
2:55 PM 66.6 °F 62.2 °F 86% 30.10 in 10.0 mi East 4.6 mph - 0.01 in   Overcast
3:15 PM 66.4 °F 61.7 °F 85% 30.10 in 10.0 mi Calm Calm - N/A   Overcast
3:35 PM 66.9 °F 61.9 °F 84% 30.09 in 10.0 mi Calm Calm - N/A   Overcast
4:35 PM 67.3 °F 62.1 °F 83% 30.08 in 10.0 mi Calm Calm - N/A   Overcast
4:55 PM 67.3 °F 62.2 °F 84% 30.07 in 10.0 mi Calm Calm - N/A   Overcast
5:15 PM 67.1 °F 62.2 °F 84% 30.07 in 10.0 mi East 4.6 mph - N/A   Overcast
6:15 PM 66.9 °F 62.6 °F 86% 30.06 in 10.0 mi SE 3.5 mph - N/A   Light Drizzle
6:55 PM 67.1 °F 62.2 °F 84% 30.04 in 10.0 mi SE 3.5 mph - N/A   Overcast
7:35 PM 66.4 °F 62.1 °F 86% 30.05 in 10.0 mi Calm Calm - N/A   Overcast
7:55 PM 66.7 °F 61.7 °F 84% 30.05 in 10.0 mi SSW 3.5 mph - N/A   Overcast
8:15 PM 66.6 °F 61.7 °F 84% 30.05 in 10.0 mi Calm Calm - N/A   Overcast
8:35 PM 66.6 °F 61.7 °F 84% 30.04 in 10.0 mi Calm Calm - N/A   Overcast
8:55 PM 66.6 °F 61.9 °F 85% 30.04 in 10.0 mi Calm Calm - N/A   Overcast
9:15 PM 66.7 °F 62.2 °F 85% 30.05 in 10.0 mi Calm Calm - N/A   Overcast
9:35 PM 66.6 °F 62.6 °F 87% 30.05 in 10.0 mi Calm Calm - N/A   Overcast
9:55 PM 66.6 °F 62.6 °F 87% 30.05 in 10.0 mi Calm Calm - N/A   Overcast